Overview Statistics Trail Chart Weather Telemetry Raw packets
 

This is the latest recevied weather packets stored in our database for station/object KR4KUV. If no packets are shown the sender has not sent any weather packets the latest 10 day(s).

<< 3 4 5 6 7 8 9 >>
Time Temp. Humidity Pressure Rain* Wind** Luminosity Snow
1788539027 32.78° C 68% 1019.1 hPa 0 mm - 632 W/m² -
1788538727 32.78° C 67% 1019.3 hPa 0 mm - 623 W/m² -
1788538422 32.22° C 68% 1019.4 hPa 0 mm - 616 W/m² -
1788538118 32.78° C 68% 1019.6 hPa 0 mm - 608 W/m² -
1788537813 32.22° C 69% 1019.5 hPa 0 mm - 599 W/m² -
1788537508 31.67° C 70% 1019.6 hPa 0 mm - 592 W/m² -
1788537202 31.67° C 69% 1019.6 hPa 0 mm - 586 W/m² -
1788536901 31.67° C 71% 1019.6 hPa 0 mm - 577 W/m² -
1788536596 31.67° C 71% 1019.6 hPa 0 mm - 566 W/m² -
1788536292 31.11° C 72% 1019.7 hPa 0 mm - 556 W/m² -
1788535987 30.56° C 74% 1019.8 hPa 0 mm - 547 W/m² -
1788535683 30.56° C 76% 1019.7 hPa 0 mm - 537 W/m² -
1788535378 30° C 74% 1019.7 hPa 0 mm - 526 W/m² -
1788535073 30° C 75% 1019.6 hPa 0 mm - 224 W/m² -
1788534772 30° C 76% 1019.7 hPa 0 mm - 205 W/m² -
1788534468 30° C 76% 1019.8 hPa 0 mm - 138 W/m² -
1788534163 30° C 76% 1019.8 hPa 0 mm - 77 W/m² -
1788533861 29.44° C 77% 1019.8 hPa 0 mm - 95 W/m² -
1788533557 29.44° C 77% 1019.7 hPa 0 mm - 80 W/m² -
1788533252 29.44° C 77% 1019.6 hPa 0 mm - 80 W/m² -
1788532948 28.89° C 78% 1019.8 hPa 0 mm - 70 W/m² -
1788532643 28.89° C 79% 1019.6 hPa 0 mm - 77 W/m² -
1788532340 28.89° C 79% 1019.5 hPa 0 mm - 68 W/m² -
1788532036 28.89° C 81% 1019.8 hPa 0 mm - 67 W/m² -
1788531732 28.89° C 80% 1019.6 hPa 0 mm - 152 W/m² -

* Rain latest hour (hover to see other rain measurements)
** Current wind speed in m/s (hover to see current wind gust speed)